Location: Christian Reformed Church
(43.0975°N, 93.8113°W)
Time: 01:43:05
(UTC+00:00)

CORIOLIS - Pass Details

Date: 13 December 2025
Orbit: 816 x 835 km, 98.7° (Epoch: 14 January)

Event Time Altitude Azimuth Distance (km) Brightness Sun altitude
Rises 12:56:10 0° 10° (N) 3,370 7.2 -7.7°
Reaches altitude 10° 12:58:32 10° 8° (N) 2,436 6.4 -7.3°
Maximum altitude 13:03:53 66° 288° (WNW) 906 4.2 -6.4°
Drops below altitude 10° 13:09:13 10° 207° (SSW) 2,431 6.6 -5.5°
Sets 13:11:34 0° 204° (SSW) 3,363 7.4 -5.1°
